| time (UTC) | temp F | wind direction | speed MPH | gust MPH | rain 1hr in | rain 24hr in | rain mn in | humidity % | barometer mb |
| 20260901205024 | 64 | 122 | 2.0 | 2.0 | 0.00 | 0.00 | 0.00 | 81 | 1009.7 |
| 20260901204520 | 64 | 118 | 3.0 | 4.0 | 0.00 | 0.00 | 0.00 | 81 | 1009.6 |
| 20260901204015 | 64 | 155 | 2.0 | 3.0 | 0.00 | 0.00 | 0.00 | 81 | 1009.9 |
| 20260901203515 | 64 | 151 | 2.0 | 4.0 | 0.00 | 0.00 | 0.00 | 81 | 1009.8 |
| 20260901203010 | 64 | 121 | 4.0 | 5.0 | 0.00 | 0.00 | 0.00 | 81 | 1009.6 |
| 20260901202505 | 64 | 141 | 2.0 | 4.0 | 0.00 | 0.00 | 0.00 | 81 | 1009.7 |
| 20260901202000 | 64 | 117 | 0.0 | 4.0 | 0.00 | 0.00 | 0.00 | 80 | 1009.7 |
| 20260901201456 | 65 | 124 | 3.0 | 5.0 | 0.00 | 0.00 | 0.00 | 79 | 1009.6 |
| 20260901200956 | 65 | 130 | 2.0 | 3.0 | 0.00 | 0.00 | 0.00 | 79 | 1009.6 |
| 20260901200450 | 65 | 61 | 0.0 | 2.0 | 0.00 | 0.00 | 0.00 | 78 | 1009.6 |
| 20260901195949 | 65 | 125 | 3.0 | 4.0 | 0.00 | 0.00 | 0.00 | 78 | 1009.7 |
| 20260901195448 | 65 | 106 | 0.0 | 3.0 | 0.00 | 0.00 | 0.00 | 78 | 1009.7 |
| 20260901194943 | 65 | 103 | 2.0 | 4.0 | 0.00 | 0.00 | 0.00 | 78 | 1009.7 |
| 20260901194438 | 65 | 167 | 1.0 | 4.0 | 0.00 | 0.00 | 0.00 | 76 | 1009.5 |
| 20260901193935 | 66 | 214 | 3.0 | 6.0 | 0.00 | 0.00 | 0.00 | 75 | 1009.6 |
| 20260901193434 | 66 | 175 | 4.0 | 6.0 | 0.00 | 0.00 | 0.00 | 75 | 1009.7 |
| 20260901192933 | 68 | 137 | 4.0 | 6.0 | 0.00 | 0.00 | 0.00 | 72 | 1009.7 |
| 20260901192430 | 69 | 143 | 2.0 | 5.0 | 0.00 | 0.00 | 0.00 | 72 | 1009.9 |
| 20260901191925 | 67 | 174 | 2.0 | 6.0 | 0.00 | 0.00 | 0.00 | 75 | 1009.7 |
| 20260901191422 | 67 | 167 | 6.0 | 8.0 | 0.00 | 0.00 | 0.00 | 75 | 1009.7 |
| 20260901190917 | 67 | 122 | 2.0 | 3.0 | 0.00 | 0.00 | 0.00 | 75 | 1009.8 |
| 20260901190417 | 66 | 189 | 3.0 | 5.0 | 0.00 | 0.00 | 0.00 | 75 | 1009.9 |
| 20260901185914 | 66 | 147 | 2.0 | 5.0 | 0.00 | 0.00 | 0.00 | 76 | 1009.9 |
| 20260901185414 | 66 | 120 | 4.0 | 5.0 | 0.00 | 0.00 | 0.00 | 78 | 1009.8 |
| 20260901184903 | 68 | 134 | 3.0 | 4.0 | 0.00 | 0.00 | 0.00 | 73 | 1009.9 |
| 20260901184359 | 67 | 124 | 3.0 | 4.0 | 0.00 | 0.00 | 0.00 | 74 | 1009.6 |
| 20260901183854 | 67 | 123 | 2.0 | 6.0 | 0.00 | 0.00 | 0.00 | 75 | 1009.7 |
| 20260901183354 | 67 | 131 | 2.0 | 6.0 | 0.00 | 0.00 | 0.00 | 75 | 1009.7 |
| 20260901182850 | 67 | 146 | 3.0 | 5.0 | 0.00 | 0.00 | 0.00 | 76 | 1009.6 |
| 20260901182350 | 66 | 126 | 2.0 | 6.0 | 0.00 | 0.00 | 0.00 | 76 | 1009.6 |
| 20260901181844 | 66 | 198 | 1.0 | 5.0 | 0.00 | 0.00 | 0.00 | 76 | 1009.5 |
| 20260901181339 | 66 | 116 | 2.0 | 2.0 | 0.00 | 0.00 | 0.00 | 76 | 1009.6 |
| 20260901180838 | 65 | 269 | 0.0 | 2.0 | 0.00 | 0.00 | 0.00 | 78 | 1009.6 |
| 20260901180337 | 66 | 131 | 2.0 | 5.0 | 0.00 | 0.00 | 0.00 | 77 | 1009.6 |
| 20260901175836 | 66 | 146 | 2.0 | 3.0 | 0.00 | 0.00 | 0.00 | 76 | 1009.8 |
| 20260901175330 | 67 | 171 | 3.0 | 4.0 | 0.00 | 0.00 | 0.00 | 77 | 1009.6 |
| 20260901174826 | 65 | 68 | 0.0 | 3.0 | 0.00 | 0.00 | 0.00 | 80 | 1009.7 |
| 20260901174322 | 64 | 31 | 0.0 | 2.0 | 0.00 | 0.00 | 0.00 | 81 | 1009.6 |
| 20260901173817 | 64 | 104 | 2.0 | 4.0 | 0.00 | 0.00 | 0.00 | 82 | 1009.6 |
| 20260901173312 | 64 | 118 | 4.0 | 4.0 | 0.00 | 0.00 | 0.00 | 80 | 1009.4 |
| 20260901172809 | 63 | 145 | 2.0 | 5.0 | 0.00 | 0.00 | 0.00 | 81 | 1009.3 |
| 20260901172308 | 65 | 107 | 3.0 | 4.0 | 0.00 | 0.00 | 0.00 | 78 | 1009.5 |
| 20260901171806 | 65 | 116 | 2.0 | 4.0 | 0.00 | 0.00 | 0.00 | 81 | 1009.3 |
| 20260901171305 | 63 | 110 | 4.0 | 5.0 | 0.00 | 0.00 | 0.00 | 82 | 1009.5 |
| 20260901170804 | 62 | 83 | 1.0 | 2.0 | 0.00 | 0.00 | 0.00 | 86 | 1009.7 |
| 20260901170259 | 62 | 150 | 2.0 | 4.0 | 0.00 | 0.00 | 0.00 | 86 | 1009.6 |
| 20260901165758 | 60 | 178 | 3.0 | 3.0 | 0.00 | 0.00 | 0.00 | 90 | 1009.6 |
| 20260901165253 | 59 | 121 | 3.0 | 4.0 | 0.00 | 0.00 | 0.00 | 89 | 1009.6 |
| 20260901164749 | 59 | 146 | 2.0 | 3.0 | 0.00 | 0.00 | 0.00 | 90 | 1009.4 |
| 20260901164245 | 59 | 128 | 2.0 | 3.0 | 0.00 | 0.00 | 0.00 | 91 | 1009.5 |
| 20260901163739 | 58 | 72 | 1.0 | 2.0 | 0.00 | 0.00 | 0.00 | 93 | 1009.3 |
| 20260901163239 | 57 | 37 | 0.0 | 2.0 | 0.00 | 0.00 | 0.00 | 94 | 1009.5 |
| 20260901162734 | 57 | 35 | 0.0 | 2.0 | 0.00 | 0.00 | 0.00 | 95 | 1009.5 |
| 20260901162233 | 56 | 50 | 1.0 | 2.0 | 0.00 | 0.00 | 0.00 | 95 | 1009.4 |
| 20260901161732 | 56 | 26 | 2.0 | 2.0 | 0.00 | 0.00 | 0.00 | 96 | 1009.5 |
| 20260901161227 | 56 | 27 | 1.0 | 2.0 | 0.00 | 0.00 | 0.00 | 96 | 1009.5 |
| 20260901160723 | 56 | 29 | 0.0 | 5.0 | 0.00 | 0.00 | 0.00 | 95 | 1009.7 |
| 20260901160219 | 56 | 136 | 2.0 | 2.0 | 0.00 | 0.00 | 0.00 | 96 | 1009.6 |
| 20260901155717 | 56 | 109 | 1.0 | 2.0 | 0.00 | 0.00 | 0.00 | 96 | 1009.5 |
| 20260901155213 | 55 | 66 | 1.0 | 2.0 | 0.00 | 0.00 | 0.00 | 97 | 1009.5 |
| 20260901154708 | 55 | 54 | 2.0 | 2.0 | 0.00 | 0.00 | 0.00 | 97 | 1009.5 |
| 20260901154202 | 55 | 50 | 1.0 | 2.0 | 0.00 | 0.00 | 0.00 | 97 | 1009.4 |
| 20260901153657 | 55 | 38 | 2.0 | 2.0 | 0.00 | 0.00 | 0.00 | 97 | 1009.4 |
| 20260901153152 | 55 | 42 | 0.0 | 1.0 | 0.00 | 0.00 | 0.00 | 97 | 1009.5 |
| 20260901152646 | 54 | 68 | 2.0 | 4.0 | 0.00 | 0.00 | 0.00 | 98 | 1009.2 |
| 20260901152145 | 54 | 27 | 1.0 | 2.0 | 0.00 | 0.00 | 0.00 | 98 | 1009.4 |
| 20260901151641 | 54 | 13 | 2.0 | 3.0 | 0.00 | 0.00 | 0.00 | 98 | 1009.2 |
| 20260901151140 | 54 | 13 | 2.0 | 3.0 | 0.00 | 0.00 | 0.00 | 98 | 1009.3 |
| 20260901150639 | 54 | 69 | 2.0 | 4.0 | 0.00 | 0.00 | 0.00 | 98 | 1009.2 |
| 20260901150138 | 54 | 0 | 2.0 | 3.0 | 0.00 | 0.00 | 0.00 | 98 | 1009.2 |
| 20260901145636 | 54 | 19 | 1.0 | 2.0 | 0.00 | 0.00 | 0.00 | 98 | 1009.2 |
| 20260901145135 | 54 | 44 | 2.0 | 2.0 | 0.00 | 0.00 | 0.00 | 98 | 1009.1 |
| 20260901144631 | 54 | 10 | 2.0 | 4.0 | 0.00 | 0.00 | 0.00 | 98 | 1009.2 |
| 20260901144126 | 53 | 29 | 3.0 | 3.0 | 0.00 | 0.00 | 0.00 | 97 | 1009.1 |
| 20260901143621 | 53 | 0 | 2.0 | 3.0 | 0.00 | 0.00 | 0.00 | 95 | 1009.2 |
| 20260901143118 | 55 | 44 | 3.0 | 4.0 | 0.00 | 0.00 | 0.00 | 92 | 1009.1 |
| 20260901142614 | 56 | 72 | 2.0 | 3.0 | 0.00 | 0.00 | 0.00 | 90 | 1009.1 |
| 20260901142113 | 56 | 85 | 2.0 | 2.0 | 0.00 | 0.00 | 0.00 | 87 | 1009.3 |
| 20260901141607 | 57 | 77 | 2.0 | 4.0 | 0.00 | 0.00 | 0.00 | 86 | 1009.3 |
| 20260901141102 | 57 | 42 | 3.0 | 3.0 | 0.00 | 0.00 | 0.00 | 85 | 1009.3 |
| 20260901140601 | 57 | 64 | 0.0 | 2.0 | 0.00 | 0.00 | 0.00 | 85 | 1009.0 |
| 20260901140055 | 57 | 124 | 3.0 | 3.0 | 0.00 | 0.00 | 0.00 | 85 | 1009.1 |
| 20260901135555 | 57 | 84 | 1.0 | 2.0 | 0.00 | 0.00 | 0.00 | 85 | 1009.1 |
| 20260901135051 | 57 | 103 | 2.0 | 4.0 | 0.00 | 0.00 | 0.00 | 85 | 1009.1 |
| 20260901134546 | 57 | 55 | 0.0 | 2.0 | 0.00 | 0.00 | 0.00 | 85 | 1009.1 |
| 20260901134041 | 57 | 102 | 2.0 | 2.0 | 0.00 | 0.00 | 0.00 | 84 | 1009.0 |
| 20260901133539 | 57 | 112 | 1.0 | 2.0 | 0.00 | 0.00 | 0.00 | 83 | 1009.0 |
| 20260901133033 | 57 | 84 | 2.0 | 2.0 | 0.00 | 0.00 | 0.00 | 83 | 1009.1 |
| 20260901132532 | 57 | 68 | 2.0 | 2.0 | 0.00 | 0.00 | 0.00 | 83 | 1009.0 |
| 20260901132026 | 57 | 46 | 2.0 | 2.0 | 0.00 | 0.00 | 0.00 | 83 | 1008.9 |
| 20260901131521 | 58 | 46 | 2.0 | 2.0 | 0.00 | 0.00 | 0.00 | 82 | 1009.1 |
| 20260901131017 | 58 | 61 | 1.0 | 2.0 | 0.00 | 0.00 | 0.00 | 81 | 1009.0 |
| 20260901130516 | 58 | 49 | 2.0 | 2.0 | 0.00 | 0.00 | 0.00 | 81 | 1009.0 |
| 20260901130015 | 58 | 46 | 2.0 | 2.0 | 0.00 | 0.00 | 0.00 | 81 | 1009.0 |
| 20260901125514 | 58 | 28 | 2.0 | 2.0 | 0.00 | 0.00 | 0.00 | 81 | 1008.9 |
| 20260901125009 | 58 | 40 | 1.0 | 2.0 | 0.00 | 0.00 | 0.00 | 81 | 1008.9 |
| 20260901124505 | 57 | 4 | 2.0 | 2.0 | 0.00 | 0.00 | 0.00 | 82 | 1009.0 |
| 20260901124004 | 58 | 32 | 2.0 | 2.0 | 0.00 | 0.00 | 0.00 | 81 | 1008.9 |
| 20260901123459 | 58 | 47 | 2.0 | 4.0 | 0.00 | 0.00 | 0.00 | 81 | 1008.8 |
| 20260901122957 | 58 | 20 | 2.0 | 2.0 | 0.00 | 0.00 | 0.00 | 81 | 1009.0 |
| 20260901122456 | 58 | 33 | 2.0 | 3.0 | 0.00 | 0.00 | 0.00 | 81 | 1008.9 |
| 20260901121950 | 56 | 25 | 3.0 | 3.0 | 0.00 | 0.00 | 0.00 | 84 | 1009.0 |
| 20260901121445 | 57 | 34 | 1.0 | 2.0 | 0.00 | 0.00 | 0.00 | 83 | 1008.8 |
| 20260901120940 | 57 | 27 | 2.0 | 2.0 | 0.00 | 0.00 | 0.00 | 82 | 1008.8 |
| 20260901120435 | 57 | 38 | 2.0 | 2.0 | 0.00 | 0.00 | 0.00 | 83 | 1008.9 |
| 20260901115931 | 57 | 34 | 2.0 | 3.0 | 0.00 | 0.00 | 0.00 | 84 | 1008.9 |
| 20260901115430 | 57 | 25 | 2.0 | 2.0 | 0.00 | 0.00 | 0.00 | 82 | 1008.9 |
| 20260901114929 | 57 | 58 | 2.0 | 2.0 | 0.00 | 0.00 | 0.00 | 82 | 1008.9 |
| 20260901114424 | 56 | 45 | 2.0 | 3.0 | 0.00 | 0.00 | 0.00 | 84 | 1008.9 |
| 20260901113922 | 56 | 32 | 2.0 | 2.0 | 0.00 | 0.00 | 0.00 | 84 | 1008.9 |
| 20260901113421 | 57 | 31 | 2.0 | 3.0 | 0.00 | 0.00 | 0.00 | 83 | 1009.0 |
| 20260901112917 | 57 | 39 | 2.0 | 2.0 | 0.00 | 0.00 | 0.00 | 83 | 1008.9 |
| 20260901112411 | 57 | 40 | 2.0 | 2.0 | 0.00 | 0.00 | 0.00 | 82 | 1009.2 |
| 20260901111906 | 56 | 55 | 2.0 | 3.0 | 0.00 | 0.00 | 0.00 | 84 | 1009.1 |
| 20260901111404 | 56 | 31 | 2.0 | 3.0 | 0.00 | 0.00 | 0.00 | 84 | 1009.0 |
| 20260901110903 | 57 | 23 | 3.0 | 3.0 | 0.00 | 0.00 | 0.00 | 83 | 1009.0 |
| 20260901110359 | 57 | 39 | 2.0 | 2.0 | 0.00 | 0.00 | 0.00 | 82 | 1009.1 |
| 20260901105854 | 56 | 36 | 1.0 | 2.0 | 0.00 | 0.00 | 0.00 | 84 | 1009.2 |
| 20260901105350 | 56 | 20 | 3.0 | 3.0 | 0.00 | 0.00 | 0.00 | 85 | 1009.1 |
| 20260901104846 | 57 | 38 | 2.0 | 2.0 | 0.00 | 0.00 | 0.00 | 82 | 1009.1 |
| 20260901104341 | 58 | 61 | 2.0 | 2.0 | 0.00 | 0.00 | 0.00 | 80 | 1009.0 |
| 20260901103836 | 58 | 27 | 1.0 | 2.0 | 0.00 | 0.00 | 0.00 | 79 | 1009.2 |
| 20260901103330 | 58 | 52 | 2.0 | 2.0 | 0.00 | 0.00 | 0.00 | 79 | 1009.2 |
| 20260901102825 | 58 | 28 | 2.0 | 2.0 | 0.00 | 0.00 | 0.00 | 80 | 1009.1 |
| 20260901102320 | 58 | 21 | 1.0 | 2.0 | 0.00 | 0.00 | 0.00 | 80 | 1009.0 |
| 20260901101815 | 57 | 33 | 1.0 | 2.0 | 0.00 | 0.00 | 0.00 | 81 | 1009.3 |
| 20260901101309 | 57 | 32 | 0.0 | 2.0 | 0.00 | 0.00 | 0.00 | 80 | 1009.1 |
| 20260901100809 | 57 | 25 | 1.0 | 2.0 | 0.00 | 0.00 | 0.00 | 80 | 1009.3 |
| 20260901100304 | 58 | 25 | 1.0 | 2.0 | 0.00 | 0.00 | 0.00 | 81 | 1009.3 |
| 20260901095803 | 57 | 45 | 1.0 | 2.0 | 0.00 | 0.00 | 0.00 | 81 | 1009.1 |
| 20260901095301 | 57 | 22 | 2.0 | 2.0 | 0.00 | 0.00 | 0.00 | 82 | 1009.3 |
| 20260901094754 | 56 | 47 | 1.0 | 2.0 | 0.00 | 0.00 | 0.00 | 84 | 1009.1 |
| 20260901094250 | 56 | 28 | 2.0 | 2.0 | 0.00 | 0.00 | 0.00 | 83 | 1009.2 |
| 20260901093745 | 57 | 23 | 2.0 | 2.0 | 0.00 | 0.00 | 0.00 | 82 | 1009.2 |
| 20260901093243 | 57 | 50 | 2.0 | 2.0 | 0.00 | 0.00 | 0.00 | 81 | 1009.3 |
| 20260901092739 | 58 | 32 | 1.0 | 2.0 | 0.00 | 0.00 | 0.00 | 80 | 1009.2 |
| 20260901092235 | 58 | 27 | 1.0 | 2.0 | 0.00 | 0.00 | 0.00 | 80 | 1009.3 |
| 20260901091730 | 57 | 37 | 0.0 | 2.0 | 0.00 | 0.00 | 0.00 | 81 | 1009.4 |
| 20260901091226 | 58 | 22 | 2.0 | 2.0 | 0.00 | 0.00 | 0.00 | 80 | 1009.2 |
| 20260901090720 | 59 | 49 | 2.0 | 2.0 | 0.00 | 0.00 | 0.00 | 79 | 1009.3 |
| 20260901090215 | 59 | 71 | 2.0 | 3.0 | 0.00 | 0.00 | 0.00 | 79 | 1009.3 |
| 20260901085712 | 58 | 33 | 2.0 | 3.0 | 0.00 | 0.00 | 0.00 | 79 | 1009.2 |
| 20260901085207 | 57 | 65 | 2.0 | 2.0 | 0.00 | 0.00 | 0.00 | 81 | 1009.0 |
| 20260901084703 | 58 | 14 | 2.0 | 3.0 | 0.00 | 0.00 | 0.00 | 80 | 1009.2 |
| 20260901084159 | 59 | 28 | 2.0 | 2.0 | 0.00 | 0.00 | 0.00 | 78 | 1009.2 |
| 20260901083659 | 58 | 40 | 2.0 | 2.0 | 0.00 | 0.00 | 0.00 | 79 | 1009.1 |
| 20260901083158 | 57 | 39 | 2.0 | 2.0 | 0.00 | 0.00 | 0.00 | 80 | 1009.2 |
| 20260901082652 | 57 | 26 | 2.0 | 3.0 | 0.00 | 0.00 | 0.00 | 82 | 1009.0 |
| 20260901082148 | 57 | 34 | 2.0 | 3.0 | 0.00 | 0.00 | 0.00 | 81 | 1009.0 |
| 20260901081643 | 58 | 47 | 2.0 | 2.0 | 0.00 | 0.00 | 0.00 | 80 | 1009.1 |
| 20260901081142 | 57 | 33 | 2.0 | 2.0 | 0.00 | 0.00 | 0.00 | 81 | 1008.9 |
| 20260901080637 | 57 | 48 | 3.0 | 3.0 | 0.00 | 0.00 | 0.00 | 82 | 1009.0 |
| 20260901080136 | 57 | 22 | 2.0 | 3.0 | 0.00 | 0.00 | 0.00 | 81 | 1008.9 |
| 20260901075631 | 58 | 29 | 0.0 | 1.0 | 0.00 | 0.00 | 0.00 | 80 | 1009.0 |
| 20260901075131 | 58 | 39 | 1.0 | 2.0 | 0.00 | 0.00 | 0.00 | 80 | 1009.1 |
| 20260901074630 | 58 | 38 | 2.0 | 2.0 | 0.00 | 0.00 | 0.00 | 80 | 1009.1 |
| 20260901074125 | 58 | 47 | 3.0 | 3.0 | 0.00 | 0.00 | 0.00 | 79 | 1009.0 |
| 20260901073622 | 58 | 37 | 2.0 | 2.0 | 0.00 | 0.00 | 0.00 | 79 | 1009.1 |
| 20260901073117 | 58 | 44 | 2.0 | 2.0 | 0.00 | 0.00 | 0.00 | 79 | 1009.0 |
| 20260901072613 | 58 | 64 | 2.0 | 2.0 | 0.00 | 0.00 | 0.00 | 79 | 1009.2 |
| 20260901072107 | 58 | 56 | 2.0 | 2.0 | 0.00 | 0.00 | 0.00 | 79 | 1009.0 |
| 20260901071602 | 58 | 23 | 2.0 | 2.0 | 0.00 | 0.00 | 0.00 | 79 | 1009.1 |
| 20260901071100 | 59 | 68 | 2.0 | 2.0 | 0.00 | 0.00 | 0.00 | 78 | 1009.0 |
| 20260901070555 | 59 | 70 | 2.0 | 2.0 | 0.00 | 0.00 | 0.00 | 77 | 1009.1 |
| 20260901070050 | 59 | 47 | 2.0 | 2.0 | 0.00 | 0.00 | 0.00 | 77 | 1009.1 |
| 20260901065544 | 60 | 42 | 2.0 | 2.0 | 0.00 | 0.00 | 0.00 | 76 | 1009.2 |
| 20260901065039 | 60 | 42 | 2.0 | 2.0 | 0.00 | 0.00 | 0.00 | 76 | 1009.1 |
| 20260901064537 | 60 | 25 | 1.0 | 2.0 | 0.00 | 0.00 | 0.00 | 76 | 1009.3 |
| 20260901064033 | 59 | 35 | 2.0 | 2.0 | 0.00 | 0.00 | 0.00 | 77 | 1009.3 |
| 20260901063530 | 59 | 42 | 2.0 | 3.0 | 0.00 | 0.00 | 0.00 | 78 | 1009.0 |
| 20260901063025 | 59 | 33 | 2.0 | 3.0 | 0.00 | 0.00 | 0.00 | 78 | 1009.3 |
| 20260901062521 | 59 | 29 | 2.0 | 2.0 | 0.00 | 0.00 | 0.00 | 78 | 1009.3 |
| 20260901062017 | 60 | 39 | 3.0 | 3.0 | 0.00 | 0.00 | 0.00 | 75 | 1009.2 |
| 20260901061513 | 61 | 6 | 2.0 | 3.0 | 0.00 | 0.00 | 0.00 | 74 | 1009.1 |
| 20260901061007 | 62 | 24 | 2.0 | 2.0 | 0.00 | 0.00 | 0.00 | 72 | 1009.3 |
| 20260901060501 | 62 | 19 | 2.0 | 2.0 | 0.00 | 0.00 | 0.00 | 72 | 1009.6 |
| 20260901055955 | 62 | 27 | 2.0 | 3.0 | 0.00 | 0.00 | 0.00 | 72 | 1009.6 |
| 20260901055452 | 62 | 32 | 2.0 | 3.0 | 0.00 | 0.00 | 0.00 | 72 | 1009.4 |
| 20260901054948 | 62 | 10 | 2.0 | 3.0 | 0.00 | 0.00 | 0.00 | 72 | 1009.3 |
| 20260901054445 | 62 | 12 | 2.0 | 2.0 | 0.00 | 0.00 | 0.00 | 72 | 1009.6 |
| 20260901053941 | 62 | 45 | 2.0 | 2.0 | 0.00 | 0.00 | 0.00 | 72 | 1009.5 |
| 20260901053436 | 61 | 99 | 0.0 | 2.0 | 0.00 | 0.00 | 0.00 | 72 | 1009.8 |
| 20260901052931 | 62 | 337 | 2.0 | 2.0 | 0.00 | 0.00 | 0.00 | 72 | 1009.7 |
| 20260901052426 | 61 | 342 | 2.0 | 3.0 | 0.00 | 0.00 | 0.00 | 73 | 1009.6 |
| 20260901051920 | 61 | 43 | 0.0 | 3.0 | 0.00 | 0.00 | 0.00 | 74 | 1009.7 |
| 20260901051416 | 61 | 166 | 0.0 | 1.0 | 0.00 | 0.00 | 0.00 | 73 | 1009.6 |
| 20260901050910 | 61 | 29 | 0.0 | 1.0 | 0.00 | 0.00 | 0.00 | 72 | 1009.7 |
| 20260901050406 | 62 | 50 | 0.0 | 0.0 | 0.00 | 0.00 | 0.00 | 72 | 1009.6 |
| 20260901045905 | 63 | 327 | 0.0 | 2.0 | 0.00 | 0.00 | 0.00 | 69 | 1009.6 |
| 20260901045400 | 62 | 43 | 1.0 | 3.0 | 0.00 | 0.00 | 0.00 | 69 | 1009.8 |
| 20260901044855 | 62 | 291 | 1.0 | 2.0 | 0.00 | 0.00 | 0.00 | 70 | 1009.7 |
| 20260901044351 | 62 | 17 | 2.0 | 2.0 | 0.00 | 0.00 | 0.00 | 70 | 1009.5 |
| 20260901043847 | 62 | 53 | 0.0 | 2.0 | 0.00 | 0.00 | 0.00 | 69 | 1009.6 |
| 20260901043343 | 63 | 49 | 0.0 | 3.0 | 0.00 | 0.00 | 0.00 | 69 | 1009.5 |
| 20260901042842 | 63 | 88 | 1.0 | 4.0 | 0.00 | 0.00 | 0.00 | 69 | 1009.4 |
| 20260901042337 | 63 | 113 | 2.0 | 3.0 | 0.00 | 0.00 | 0.00 | 69 | 1009.6 |
| 20260901041833 | 63 | 288 | 1.0 | 4.0 | 0.00 | 0.00 | 0.00 | 68 | 1009.4 |
| 20260901041328 | 63 | 336 | 2.0 | 4.0 | 0.00 | 0.00 | 0.00 | 69 | 1009.4 |
| 20260901040828 | 63 | 351 | 3.0 | 4.0 | 0.00 | 0.00 | 0.00 | 68 | 1009.5 |
| 20260901040327 | 63 | 349 | 2.0 | 4.0 | 0.00 | 0.00 | 0.00 | 68 | 1009.5 |
| 20260901035826 | 63 | 12 | 2.0 | 5.0 | 0.00 | 0.00 | 0.00 | 67 | 1009.2 |
| 20260901035325 | 63 | 359 | 2.0 | 5.0 | 0.00 | 0.00 | 0.00 | 68 | 1009.2 |
| 20260901034824 | 63 | 352 | 3.0 | 5.0 | 0.00 | 0.00 | 0.00 | 68 | 1009.3 |
| 20260901034319 | 63 | 357 | 3.0 | 5.0 | 0.00 | 0.00 | 0.00 | 68 | 1009.3 |
| 20260901033813 | 63 | 18 | 2.0 | 7.0 | 0.00 | 0.00 | 0.00 | 68 | 1009.0 |
| 20260901033313 | 63 | 348 | 4.0 | 4.0 | 0.00 | 0.00 | 0.00 | 68 | 1009.2 |
| 20260901032811 | 63 | 351 | 2.0 | 5.0 | 0.00 | 0.00 | 0.00 | 68 | 1009.3 |
| 20260901032311 | 63 | 338 | 4.0 | 5.0 | 0.00 | 0.00 | 0.00 | 68 | 1009.2 |
| 20260901031801 | 63 | 324 | 6.0 | 6.0 | 0.00 | 0.00 | 0.00 | 69 | 1009.2 |
| 20260901031257 | 63 | 339 | 4.0 | 5.0 | 0.00 | 0.00 | 0.00 | 69 | 1009.1 |
| 20260901030756 | 63 | 359 | 4.0 | 6.0 | 0.00 | 0.00 | 0.00 | 68 | 1009.3 |
| 20260901030256 | 64 | 286 | 2.0 | 6.0 | 0.00 | 0.00 | 0.00 | 68 | 1009.2 |
| 20260901025751 | 64 | 333 | 4.0 | 5.0 | 0.00 | 0.00 | 0.00 | 68 | 1009.4 |
| 20260901025246 | 64 | 345 | 1.0 | 8.0 | 0.00 | 0.00 | 0.00 | 69 | 1009.3 |
| 20260901024741 | 64 | 354 | 3.0 | 4.0 | 0.00 | 0.00 | 0.00 | 69 | 1009.3 |
| 20260901024240 | 64 | 346 | 2.0 | 3.0 | 0.00 | 0.00 | 0.00 | 69 | 1009.1 |
| 20260901023738 | 64 | 3 | 2.0 | 3.0 | 0.00 | 0.00 | 0.00 | 68 | 1009.2 |
| 20260901023233 | 64 | 8 | 2.0 | 4.0 | 0.00 | 0.00 | 0.00 | 68 | 1009.4 |
| 20260901022729 | 64 | 56 | 1.0 | 4.0 | 0.00 | 0.00 | 0.00 | 68 | 1009.5 |
| 20260901022224 | 64 | 47 | 2.0 | 3.0 | 0.00 | 0.00 | 0.00 | 68 | 1009.4 |
| 20260901021719 | 64 | 4 | 2.0 | 4.0 | 0.00 | 0.00 | 0.00 | 67 | 1009.5 |
| 20260901021214 | 65 | 31 | 2.0 | 4.0 | 0.00 | 0.00 | 0.00 | 67 | 1009.5 |
| 20260901020704 | 65 | 84 | 2.0 | 4.0 | 0.00 | 0.00 | 0.00 | 67 | 1009.6 |
| 20260901020159 | 65 | 61 | 2.0 | 3.0 | 0.00 | 0.00 | 0.00 | 67 | 1009.6 |
| 20260901015649 | 65 | 18 | 1.0 | 2.0 | 0.00 | 0.00 | 0.00 | 67 | 1009.7 |
| 20260901015148 | 65 | 61 | 2.0 | 5.0 | 0.00 | 0.00 | 0.00 | 67 | 1009.7 |
| 20260901014643 | 65 | 7 | 4.0 | 5.0 | 0.00 | 0.00 | 0.00 | 67 | 1009.6 |
| 20260901014139 | 65 | 359 | 2.0 | 5.0 | 0.00 | 0.00 | 0.00 | 66 | 1009.7 |
| 20260901013634 | 65 | 338 | 4.0 | 5.0 | 0.00 | 0.00 | 0.00 | 66 | 1009.6 |
| 20260901013130 | 65 | 303 | 1.0 | 4.0 | 0.00 | 0.00 | 0.00 | 66 | 1009.6 |
| 20260901012625 | 66 | 20 | 3.0 | 5.0 | 0.00 | 0.00 | 0.00 | 64 | 1009.6 |
| 20260901012120 | 66 | 150 | 2.0 | 3.0 | 0.00 | 0.00 | 0.00 | 65 | 1009.5 |
| 20260901011616 | 66 | 10 | 2.0 | 3.0 | 0.00 | 0.00 | 0.00 | 64 | 1009.7 |
| 20260901011115 | 67 | 75 | 0.0 | 3.0 | 0.00 | 0.00 | 0.00 | 64 | 1009.5 |
| 20260901010610 | 66 | 324 | 4.0 | 4.0 | 0.00 | 0.00 | 0.00 | 64 | 1009.7 |
| 20260901010109 | 66 | 353 | 0.0 | 4.0 | 0.00 | 0.00 | 0.00 | 64 | 1009.8 |
| 20260901005604 | 65 | 300 | 0.0 | 4.0 | 0.00 | 0.00 | 0.00 | 66 | 1009.7 |
| 20260901005059 | 66 | 7 | 4.0 | 6.0 | 0.00 | 0.00 | 0.00 | 65 | 1009.7 |
| 20260901004558 | 66 | 11 | 3.0 | 5.0 | 0.00 | 0.00 | 0.00 | 65 | 1009.6 |
| 20260901004053 | 67 | 331 | 3.0 | 6.0 | 0.00 | 0.00 | 0.00 | 64 | 1009.9 |
| 20260901003548 | 67 | 335 | 3.0 | 6.0 | 0.00 | 0.00 | 0.00 | 63 | 1009.9 |
| 20260901003046 | 67 | 348 | 4.0 | 6.0 | 0.00 | 0.00 | 0.00 | 63 | 1009.8 |
| 20260901002546 | 67 | 345 | 4.0 | 8.0 | 0.00 | 0.00 | 0.00 | 64 | 1009.9 |
| 20260901002041 | 67 | 349 | 5.0 | 7.0 | 0.00 | 0.00 | 0.00 | 64 | 1010.0 |
| 20260901001536 | 67 | 309 | 2.0 | 5.0 | 0.00 | 0.00 | 0.00 | 65 | 1010.1 |
| 20260901001031 | 66 | 357 | 4.0 | 7.0 | 0.00 | 0.00 | 0.00 | 65 | 1010.1 |
| 20260901000531 | 66 | 329 | 5.0 | 6.0 | 0.00 | 0.00 | 0.00 | 64 | 1010.1 |
| 20260901000028 | 66 | 4 | 3.0 | 5.0 | 0.00 | 0.00 | 0.00 | 64 | 1010.0 |
| 20260831235520 | 67 | 12 | 2.0 | 4.0 | 0.00 | 0.00 | 0.00 | 62 | 1010.1 |
| 20260831235017 | 67 | 326 | 3.0 | 3.0 | 0.00 | 0.00 | 0.00 | 60 | 1010.2 |
| 20260831234511 | 68 | 272 | 1.0 | 4.0 | 0.00 | 0.00 | 0.00 | 59 | 1010.2 |
| 20260831234007 | 68 | 309 | 2.0 | 3.0 | 0.00 | 0.00 | 0.00 | 59 | 1010.3 |
| 20260831233502 | 69 | 324 | 2.0 | 4.0 | 0.00 | 0.00 | 0.00 | 58 | 1010.2 |
| 20260831232957 | 69 | 252 | 0.0 | 5.0 | 0.00 | 0.00 | 0.00 | 57 | 1010.4 |
| 20260831232453 | 70 | 292 | 2.0 | 6.0 | 0.00 | 0.00 | 0.00 | 56 | 1010.3 |
| 20260831231948 | 70 | 269 | 0.0 | 4.0 | 0.00 | 0.00 | 0.00 | 56 | 1010.4 |
| 20260831231445 | 69 | 274 | 2.0 | 4.0 | 0.00 | 0.00 | 0.00 | 58 | 1010.4 |
| 20260831230940 | 69 | 118 | 1.0 | 5.0 | 0.00 | 0.00 | 0.00 | 58 | 1010.7 |
| 20260831230435 | 69 | 262 | 2.0 | 5.0 | 0.00 | 0.00 | 0.00 | 57 | 1010.5 |
| 20260831225929 | 69 | 330 | 2.0 | 4.0 | 0.00 | 0.00 | 0.00 | 58 | 1010.8 |
| 20260831225425 | 70 | 322 | 1.0 | 5.0 | 0.00 | 0.00 | 0.00 | 57 | 1010.8 |
| 20260831224920 | 70 | 324 | 3.0 | 6.0 | 0.00 | 0.00 | 0.00 | 58 | 1011.0 |
| 20260831224420 | 70 | 338 | 4.0 | 4.0 | 0.00 | 0.00 | 0.00 | 58 | 1010.7 |
| 20260831223914 | 69 | 53 | 2.0 | 5.0 | 0.00 | 0.00 | 0.00 | 59 | 1011.0 |
| 20260831223410 | 70 | 353 | 2.0 | 2.0 | 0.00 | 0.00 | 0.00 | 59 | 1011.0 |
| 20260831222907 | 69 | 234 | 0.0 | 5.0 | 0.00 | 0.00 | 0.00 | 59 | 1011.0 |
| 20260831222402 | 71 | 263 | 1.0 | 5.0 | 0.00 | 0.00 | 0.00 | 57 | 1011.1 |
| 20260831221857 | 71 | 34 | 1.0 | 4.0 | 0.00 | 0.00 | 0.00 | 56 | 1011.1 |
| 20260831221352 | 71 | 69 | 2.0 | 4.0 | 0.00 | 0.00 | 0.00 | 56 | 1011.3 |
| 20260831220847 | 70 | 336 | 2.0 | 5.0 | 0.00 | 0.00 | 0.00 | 57 | 1011.3 |
| 20260831220337 | 70 | 342 | 2.0 | 4.0 | 0.00 | 0.00 | 0.00 | 59 | 1011.3 |
| 20260831215832 | 69 | 323 | 2.0 | 4.0 | 0.00 | 0.00 | 0.00 | 59 | 1011.4 |
| 20260831215328 | 69 | 356 | 3.0 | 4.0 | 0.00 | 0.00 | 0.00 | 59 | 1011.3 |
| 20260831214824 | 70 | 1 | 3.0 | 4.0 | 0.00 | 0.00 | 0.00 | 58 | 1011.5 |
| 20260831214322 | 69 | 355 | 3.0 | 4.0 | 0.00 | 0.00 | 0.00 | 58 | 1011.5 |
| 20260831213816 | 70 | 283 | 1.0 | 3.0 | 0.00 | 0.00 | 0.00 | 58 | 1011.5 |
| 20260831213313 | 70 | 0 | 2.0 | 3.0 | 0.00 | 0.00 | 0.00 | 59 | 1011.5 |
| 20260831212813 | 70 | 159 | 2.0 | 6.0 | 0.00 | 0.00 | 0.00 | 59 | 1011.7 |
| 20260831212310 | 70 | 344 | 2.0 | 6.0 | 0.00 | 0.00 | 0.00 | 58 | 1012.0 |
| 20260831211808 | 70 | 211 | 1.0 | 4.0 | 0.00 | 0.00 | 0.00 | 57 | 1011.7 |
| 20260831211304 | 71 | 339 | 4.0 | 4.0 | 0.00 | 0.00 | 0.00 | 57 | 1011.9 |
| 20260831210803 | 72 | 205 | 2.0 | 4.0 | 0.00 | 0.00 | 0.00 | 55 | 1011.9 |
| 20260831210300 | 72 | 151 | 3.0 | 4.0 | 0.00 | 0.00 | 0.00 | 56 | 1012.0 |
| 20260831205759 | 71 | 283 | 1.0 | 3.0 | 0.00 | 0.00 | 0.00 | 57 | 1011.9 |